Theta_e
307 312 316 319 321 324 325 325 329 342 343 344 342 340 341 342 340 340 342 342 347 350 347 344 342 343 340 336 335 334 333 333 338 334 333 336 339 339 339 340 339 341 341
305 309 315 318 318 322 322 322 326 330 340 343 341 340 339 339 341 340 341 341 343 345 347 346 343 342 339 337 335 333 332 333 336 333 332 328 329 335 340 339 341 341 341
304 305 310 314 319 319 319 321 321 325 327 333 340 337 336 339 338 339 339 339 340 342 344 344 345 341 340 338 338 335 332 331 334 335 332 323 318 330 334 339 339 339 339
306 306 306 310 312 318 318 318 320 320 322 324 329 337 333 329 333 333 337 340 340 341 342 342 344 343 341 339 337 337 335 336 331 333 342 330 334 325 323 336 338 340 339
304 305 305 306 310 312 315 318 319 318 319 320 324 328 329 331 335 336 336 336 338 340 340 339 343 342 340 340 337 336 336 337 334 334 334 332 334 334 329 322 331 335 338
304 306 308 308 308 308 311 313 317 318 319 319 319 322 325 328 329 331 331 336 337 338 339 339 338 342 341 339 339 337 340 341 340 339 332 327 321 320 324 326 332 327 332
304 305 305 306 306 308 309 314 314 314 318 318 320 321 322 323 325 328 329 331 332 334 337 338 337 339 340 340 338 335 338 341 343 341 340 335 329 330 333 335 329 328 328
304 303 304 304 307 307 309 309 311 313 316 320 319 319 317 320 322 323 325 325 328 333 337 334 330 329 335 339 340 342 340 342 342 341 344 339 339 340 336 335 328 324 324
303 304 306 305 305 307 308 308 308 310 313 316 317 320 322 322 320 320 322 324 325 328 331 334 331 333 335 342 341 340 341 342 342 348 347 345 344 340 339 337 333 326 319
301 304 304 305 306 307 308 309 310 310 310 312 313 318 321 323 322 322 322 322 323 327 329 329 335 338 341 342 333 340 342 343 341 340 343 345 342 340 340 336 332 330 325
300 301 303 305 306 308 307 309 310 311 312 312 314 315 316 317 319 324 324 324 324 327 330 329 330 332 337 345 343 345 347 345 346 346 345 343 341 340 339 336 332 329 328
301 301 302 303 304 304 305 307 311 310 311 313 314 316 317 318 317 319 323 324 323 324 327 330 332 334 335 340 348 347 348 348 346 347 343 343 344 340 338 334 331 330 330
304 307 307 303 303 304 305 306 306 307 307 308 307 307 311 315 316 319 321 323 325 324 324 325 326 329 336 336 340 345 346 346 346 346 343 341 341 339 338 335 331 331 331
305 306 305 307 304 306 307 306 306 307 307 309 307 306 307 310 315 318 321 323 326 326 326 326 326 328 330 336 339 339 341 343 347 345 344 342 343 342 338 335 332 330 329
304 306 306 305 304 304 306 307 306 306 307 307 306 306 307 308 310 314 318 320 321 322 323 325 328 328 329 332 337 340 341 345 343 342 344 343 339 333 335 335 330 326 325
305 305 305 304 303 305 306 307 305 305 306 306 306 307 308 309 309 311 315 317 318 320 323 325 327 327 328 318 316 330 339 345 339 340 342 338 329 329 324 325 323 326 328
304 304 303 303 303 304 306 305 306 306 305 305 307 308 308 309 309 310 314 314 315 318 321 324 325 326 328 314 313 312 342 340 340 339 335 334 333 327 326 317 319 317 314
299 300 301 302 303 305 303 304 305 305 306 305 306 307 308 308 308 308 309 311 311 313 316 319 322 325 329 313 310 310 334 340 336 335 336 332 327 326 324 323 323 322 322
301 301 302 302 302 302 304 304 304 304 304 305 306 307 307 306 307 307 307 308 311 314 317 321 324 326 328 309 306 309 332 335 334 336 335 332 330 312 311 325 322 320 317
299 299 301 302 303 303 304 303 303 303 303 305 306 307 307 306 306 307 307 308 313 316 318 320 322 320 327 312 305 309 335 331 330 326 327 315 324 304 307 326 323 319 317
298 299 300 300 301 303 303 303 303 302 305 306 307 307 307 307 307 307 307 307 310 314 316 320 321 325 325 328 302 305 334 331 328 326 322 315 302 300 304 311 323 319 319
298 299 298 298 300 301 302 302 301 303 305 306 307 306 306 307 309 307 307 308 312 312 314 316 319 324 327 311 303 303 316 320 328 326 321 309 299 302 300 310 299 300 312
298 298 298 298 299 301 302 301 302 304 305 305 306 306 307 308 309 308 309 309 312 312 315 317 319 322 320 316 302 304 309 311 325 324 311 298 297 297 300 297 298 306 320
295 296 296 296 297 299 299 301 303 304 304 303 305 306 307 308 309 310 311 310 312 313 315 316 318 322 319 316 313 314 312 306 308 304 305 306 307 307 305 308 311 320 320
294 294 294 295 296 299 299 300 302 303 302 303 304 307 307 307 308 309 310 312 313 314 315 319 322 325 319 319 315 318 321 320 314 314 316 317 317 315 315 315 317 318 321
291 291 292 293 295 296 296 299 302 303 302 303 304 305 306 307 309 309 308 297 298 300 301 304 317 325 312 305 304 304 303 303 305 318 318 317 316 316 315 315 316 317 317
Wind_Speed
6 5 7 9 9 8 7 4 4 5 2 3 4 1 4 3 1 3 5 7 7 8 10 6 5 5 6 6 6 4 5 6 5 2 3 4 7 6 7 5 5 6 7
8 9 8 6 8 8 6 4 3 4 4 3 0 4 1 1 1 2 5 8 7 7 9 8 6 8 4 5 6 5 0 3 3 5 2 3 4 4 4 3 5 7 5
12 11 15 10 9 9 8 6 3 1 3 6 3 3 2 1 2 4 5 3 8 8 7 7 9 8 7 9 7 7 8 10 2 4 5 0 4 3 2 3 4 6 5
11 11 8 10 10 8 8 8 5 1 2 3 3 5 8 8 6 3 2 5 7 4 9 9 10 10 9 12 10 7 8 5 4 2 6 3 3 2 8 2 4 6 7
10 10 10 10 8 9 8 8 7 5 4 5 4 4 5 5 4 3 7 6 8 10 12 10 10 11 9 10 10 10 9 5 4 5 4 3 4 4 5 9 8 4 5
11 11 9 9 7 5 7 8 8 6 6 5 5 4 5 5 4 2 2 3 1 3 7 5 6 9 9 11 10 8 9 12 11 9 8 5 5 5 4 7 14 5 5
14 13 12 9 8 7 7 7 8 7 8 7 6 6 5 4 6 0 4 4 4 3 4 5 7 7 9 10 9 5 11 13 12 13 10 6 6 3 4 8 7 6 4
11 11 11 9 9 9 9 10 8 3 6 7 8 7 6 4 3 4 4 3 2 2 6 12 11 12 12 2 6 8 12 15 15 17 10 8 9 8 5 6 5 4 3
9 10 9 10 10 9 10 9 8 6 4 5 6 7 7 7 6 7 5 3 4 4 7 8 9 10 7 5 17 23 21 15 14 12 13 10 7 5 5 5 4 5 3
8 7 8 8 7 9 10 9 10 10 10 9 7 6 7 7 7 6 7 7 6 6 7 7 8 8 12 19 17 17 18 15 13 10 11 8 5 5 4 4 4 4 5
5 6 7 8 7 5 6 8 8 9 8 8 8 7 7 7 7 7 8 8 7 7 7 8 7 7 9 13 17 18 16 15 13 10 9 9 7 5 4 4 4 4 4
11 10 9 9 8 8 7 8 8 8 7 6 5 7 7 8 8 7 8 7 7 7 7 7 10 9 10 10 13 14 15 15 11 13 8 9 6 7 6 4 5 4 4
15 14 17 11 9 9 9 9 8 8 7 6 3 2 4 6 8 8 8 7 7 7 8 10 11 11 12 13 10 12 13 13 11 12 11 11 8 7 5 5 5 3 3
7 11 6 17 4 2 3 3 3 3 1 4 3 3 4 4 7 8 8 8 7 7 7 11 13 12 12 14 14 13 12 13 12 12 12 10 10 11 9 7 6 5 4
11 8 11 5 9 2 1 3 3 3 2 2 2 4 5 7 10 11 11 10 8 8 10 13 12 13 12 12 15 14 12 12 11 11 11 8 9 10 8 5 6 5 4
11 15 15 9 6 4 5 5 6 7 6 6 7 7 6 7 11 14 19 10 8 8 11 13 13 13 11 15 17 14 13 11 10 10 9 7 9 9 12 11 10 8 7
14 14 8 7 7 7 7 7 6 6 7 7 7 8 8 10 10 12 13 8 8 7 9 11 12 14 13 14 17 16 14 9 10 8 7 6 4 8 8 9 9 5 7
15 15 13 11 11 5 5 6 6 5 6 8 10 11 12 11 10 10 9 10 6 8 8 12 14 15 12 14 15 17 10 9 8 8 9 9 10 8 8 7 5 4 5
16 15 14 13 8 9 8 8 7 7 7 11 13 14 14 14 13 12 11 8 7 8 7 9 13 10 10 13 16 8 10 7 7 8 8 9 10 12 14 8 6 6 3
17 20 23 21 19 17 12 10 10 10 13 13 16 16 14 15 14 14 14 11 5 6 5 7 7 10 11 12 15 10 8 7 5 4 5 10 9 13 14 8 8 8 6
24 22 20 20 19 16 13 15 10 12 13 15 14 14 14 15 13 10 8 9 11 8 6 6 6 9 10 11 11 17 7 8 9 7 5 4 15 11 8 8 7 7 8
26 23 20 19 17 16 14 14 14 13 14 13 13 14 15 14 12 11 12 13 9 5 6 6 8 9 10 9 12 11 13 14 13 10 6 6 13 11 9 7 9 12 10
21 20 19 23 20 17 16 19 18 14 15 13 15 14 15 10 10 10 11 5 6 5 8 7 8 9 3 4 3 15 20 15 12 9 11 15 13 12 8 9 11 9 5
23 20 20 22 23 18 19 19 16 15 15 15 14 12 12 11 11 8 8 6 6 7 7 8 9 8 6 6 4 9 11 17 13 17 12 9 9 7 8 5 4 4 4
23 20 20 20 23 18 18 17 16 14 15 14 13 12 9 8 9 9 8 5 6 8 8 10 9 9 8 9 11 16 12 11 13 14 8 7 6 5 4 4 4 4 3
24 22 22 21 21 19 20 17 16 15 14 13 11 10 9 9 9 8 6 4 4 13 15 18 11 7 12 16 15 17 21 22 18 9 9 8 7 7 5 4 4 3 4
Wind_Direction
211 128 147 125 118 109 99 78 29 315 263 158 139 171 182 182 157 204 163 178 172 189 199 216 197 199 213 217 212 211 213 244 167 65 325 280 253 246 242 243 224 227 227
193 147 147 140 137 136 131 107 21 339 321 302 143 138 140 230 234 222 172 213 169 182 200 198 204 215 221 222 219 202 248 277 238 148 190 285 307 249 244 278 238 232 223
186 183 160 165 146 142 152 153 165 354 341 335 339 360 118 22 155 220 196 120 243 174 211 206 208 202 204 233 228 216 200 245 291 225 156 44 250 354 122 275 253 251 237
186 189 155 134 143 163 155 147 149 220 277 291 276 261 261 179 208 176 272 177 231 241 208 209 218 212 218 229 221 241 223 218 191 257 233 253 173 268 337 32 297 258 249
118 121 138 138 142 131 148 158 162 186 226 243 210 209 255 274 136 210 183 205 201 221 228 209 205 216 216 223 212 214 231 209 192 196 204 210 187 163 129 311 284 250 245
112 109 102 107 117 137 145 159 159 207 210 223 257 264 270 300 302 120 225 198 264 235 234 261 236 232 226 227 224 216 203 216 213 212 216 181 180 186 148 227 255 233 251
125 128 131 143 164 155 181 181 183 201 210 226 244 253 250 256 269 328 240 225 166 244 254 224 219 225 219 235 247 255 250 233 224 213 218 211 212 193 188 212 248 238 251
142 151 159 161 158 182 155 149 154 200 221 214 230 243 252 253 250 227 249 253 193 192 228 210 220 234 235 150 317 288 257 242 241 237 211 201 221 204 192 204 189 272 278
162 169 156 159 173 170 170 170 174 194 228 222 235 244 243 248 252 268 259 217 192 219 221 216 226 239 274 226 220 245 245 236 247 231 224 221 225 209 189 176 179 175 219
99 131 154 172 179 181 182 178 180 191 203 221 228 223 222 230 241 247 259 264 248 223 238 211 219 247 220 218 222 227 234 232 235 240 238 218 191 200 194 168 207 153 156
147 194 180 163 167 175 184 189 193 196 205 213 225 231 239 235 222 220 235 240 251 257 258 262 231 227 255 217 223 233 236 235 236 235 221 217 186 200 189 191 189 183 149
345 313 202 189 174 169 170 170 170 170 189 208 232 253 241 234 237 233 229 222 230 247 247 255 268 261 241 238 228 223 223 227 225 231 207 210 199 200 187 187 207 185 153
343 336 344 266 185 189 198 200 194 191 186 179 194 289 284 277 262 245 238 243 243 241 243 242 248 255 256 252 232 223 225 235 233 218 199 208 189 201 183 180 197 176 155
329 350 215 318 341 31 122 164 145 119 119 83 57 351 322 283 273 265 254 239 232 236 258 261 254 247 253 257 249 238 228 230 221 207 202 201 193 204 193 174 170 162 165
289 306 289 206 267 309 71 111 119 94 118 158 195 248 278 299 302 280 261 248 234 242 255 265 265 257 246 253 248 236 230 213 207 202 203 194 189 197 181 155 156 176 154
283 277 263 259 267 271 230 225 202 195 193 209 212 216 233 254 265 283 257 231 239 240 248 255 262 268 252 250 251 228 224 207 205 206 197 185 187 175 158 152 166 166 171
249 262 279 285 279 267 256 250 225 207 208 220 228 236 237 243 245 256 266 227 223 227 239 254 261 265 261 248 260 244 222 192 202 182 158 146 123 136 127 111 113 141 190
320 313 304 292 282 241 256 237 222 232 238 235 241 242 248 248 244 252 272 261 230 229 245 261 260 258 257 252 247 236 225 197 186 162 158 151 148 141 142 138 142 183 121
308 299 291 277 266 265 246 227 216 218 233 253 255 248 245 249 249 249 254 272 264 241 243 250 252 244 254 231 239 219 220 181 161 156 147 151 147 158 153 146 163 137 137
287 287 279 279 280 274 255 231 226 226 235 243 251 250 247 248 245 241 249 256 248 253 252 267 258 255 255 247 234 186 220 150 131 102 119 135 142 154 157 157 162 158 181
291 283 281 276 274 278 262 240 224 236 244 249 247 248 242 244 244 249 239 244 250 245 248 260 273 275 267 257 198 206 193 149 136 127 118 107 132 130 149 159 160 172 151
285 281 273 268 262 259 258 254 243 246 249 245 240 240 247 245 238 229 232 236 225 230 248 258 268 263 265 221 198 216 172 149 138 143 130 114 118 126 132 126 143 137 125
282 276 269 271 264 261 255 251 247 243 244 240 235 232 240 243 236 232 237 226 216 226 244 242 253 262 202 192 249 215 139 141 128 131 127 125 120 119 96 127 129 126 122
283 280 272 266 266 259 255 250 247 236 233 237 235 233 232 231 232 228 221 200 203 224 230 244 245 251 182 171 189 128 106 96 94 101 113 132 117 112 129 119 113 106 124
287 280 271 264 262 253 250 247 243 236 237 237 236 228 216 225 234 231 218 206 206 205 233 239 237 208 173 185 185 135 133 127 126 113 121 135 136 131 134 120 133 126 127
284 277 269 261 258 249 250 246 236 229 228 233 224 222 223 225 221 215 207 102 267 255 245 243 236 171 158 163 139 121 117 127 139 127 142 141 138 146 149 148 148 145 155